Location: Mount Kobau Star Party
(49.1167°N, 119.7333°W)
Time: 05:51:51
(UTC-07:00)

BlueWalker 3 - Visible Passes

Search period start: 16 June 2025 00:00
Search period end: 26 June 2025 00:00
Orbit: 460 x 472 km, 53.2° (Epoch: 15 June)

Date Brightness Start Highest point End Pass type
(mag) Time Alt. Az. Time Alt. Az. Time Alt. Az.
21 Jun 3.4 04:11:32 10° SSW 04:14:33 25° SE 04:17:35 10° E visible
22 Jun 3.5 03:39:26 10° S 03:42:14 21° SE 03:45:04 10° E visible
23 Jun 3.7 03:08:08 13° S 03:09:56 18° SE 03:12:28 10° E visible
24 Jun 3.8 02:36:46 14° SSE 02:37:38 15° SE 02:39:48 10° E visible
24 Jun 1.8 04:11:11 10° SW 04:14:49 72° SSE 04:18:27 10° ENE visible
25 Jun 4.0 02:05:21 13° SE 02:05:21 13° SE 02:06:58 10° ESE visible
25 Jun 1.9 03:39:15 13° SW 03:42:24 62° SSE 03:46:02 10° ENE visible
